Weather History for Corning, AR

Change the Weather History Date:

Friday, June 7, 2013

  Actual Average (KARG) Record (KARG)
Temperature  
Mean Temperature 72 °F -  
Max Temperature 80 °F 82 °F 96 °F (2011)
Min Temperature 64 °F 64 °F 53 °F (1998)
Cooling Degree Days 7    
Growing Degree Days 22 (Base 50)    
Moisture  
Dew Point 57 °F    
Average Humidity 63    
Maximum Humidity 88    
Minimum Humidity 42    
Precipitation  
Precipitation 0.00 in - - ()
Sea Level Pressure  
Sea Level Pressure 29.88 in    
Wind  
Wind Speed 9 mph (NNW)    
Max Wind Speed 15 mph    
Max Gust Speed 20 mph    
Visibility 10 miles    
Events      
Averages and records for this station are not official NWS values.
T = Trace of Precipitation, MM = Missing Value Source: NWS Daily Summary

Daily Weather History Graph

Daily Weather History Graph

Search for Another Location

Airport:

Trip Planner

Search our weather history database for the weather conditions in past years. The results will help you decide how hot, cold, wet, or windy it might be!

Date:

Astronomy

Jun. 07, 2013 Rise Set
Actual Time 5:44 AM CDT 8:18 PM CDT
Civil Twilight 5:14 AM CDT 8:48 PM CDT
Nautical Twilight 4:36 AM CDT 9:26 PM CDT
Astronomical Twilight 3:55 AM CDT 10:08 PM CDT
Moon 5:05 AM CDT (6/7) 7:34 PM CDT (6/7)
Length of Visible Light 15h 34m
Length of Day
14h 34m
Waning Crescent, 1% of the Moon is Illuminated
Jun 7
Waning Crescent
Jun 8
New
Jun 16
First Quarter
Jun 23
Full
Jun 29
Last Quarter

Hourly Weather History & Observations

Time (CDT) Temp. Heat Index Dew Point Humidity Pressure Visibility Wind Dir Wind Speed Gust Speed Precip Events Conditions
12:15 AM 68.0 °F - 60.8 °F 78% 29.87 in 10.0 mi NNW 9.2 mph - N/A   Overcast
12:35 AM 68.0 °F - 60.8 °F 78% 29.86 in 10.0 mi NNW 8.1 mph - N/A   Overcast
12:55 AM 68.0 °F - 60.8 °F 78% 29.86 in 10.0 mi NNW 8.1 mph - N/A   Overcast
1:15 AM 68.0 °F - 59.0 °F 73% 29.86 in 10.0 mi NNW 6.9 mph - N/A   Overcast
1:35 AM 68.0 °F - 59.0 °F 73% 29.85 in 10.0 mi NNW 8.1 mph - N/A   Mostly Cloudy
1:55 AM 68.0 °F - 59.0 °F 73% 29.85 in 10.0 mi NNW 6.9 mph - N/A   Overcast
2:15 AM 68.0 °F - 59.0 °F 73% 29.84 in 10.0 mi NNW 9.2 mph - N/A   Overcast
2:35 AM 68.0 °F - 59.0 °F 73% 29.85 in 10.0 mi NNW 9.2 mph - N/A   Overcast
2:55 AM 68.0 °F - 57.2 °F 68% 29.84 in 10.0 mi NNW 9.2 mph - N/A   Overcast
3:15 AM 68.0 °F - 57.2 °F 68% 29.84 in 10.0 mi NNW 8.1 mph - N/A   Overcast
3:35 AM 66.2 °F - 57.2 °F 73% 29.84 in 10.0 mi NNW 9.2 mph - N/A   Overcast
3:55 AM 66.2 °F - 57.2 °F 73% 29.85 in 10.0 mi NNW 6.9 mph - N/A   Overcast
4:15 AM 66.2 °F - 57.2 °F 73% 29.85 in 10.0 mi NNW 8.1 mph - N/A   Overcast
4:35 AM 66.2 °F - 57.2 °F 73% 29.85 in 10.0 mi NNW 8.1 mph - N/A   Overcast
4:55 AM 66.2 °F - 57.2 °F 73% 29.86 in 10.0 mi NNW 8.1 mph - N/A   Overcast
5:15 AM 64.4 °F - 57.2 °F 77% 29.87 in 10.0 mi NNW 8.1 mph - N/A   Overcast
5:35 AM 64.4 °F - 57.2 °F 77% 29.87 in 10.0 mi NNW 8.1 mph - N/A   Overcast
5:55 AM 64.4 °F - 57.2 °F 77% 29.87 in 10.0 mi NNW 8.1 mph - N/A   Mostly Cloudy
6:15 AM 64.4 °F - 57.2 °F 77% 29.88 in 10.0 mi NW 6.9 mph - N/A   Scattered Clouds
6:35 AM 64.4 °F - 57.2 °F 77% 29.88 in 10.0 mi NNW 8.1 mph - N/A   Partly Cloudy
6:55 AM 66.2 °F - 57.2 °F 73% 29.89 in 10.0 mi NNW 10.4 mph - N/A   Clear
7:15 AM 66.2 °F - 57.2 °F 73% 29.89 in 9.0 mi NNW 10.4 mph - N/A   Clear
7:35 AM 66.2 °F - 57.2 °F 73% 29.90 in 10.0 mi NNW 9.2 mph - N/A   Clear
7:55 AM 68.0 °F - 57.2 °F 68% 29.90 in 10.0 mi NNW 8.1 mph 17.3 mph N/A   Clear
8:15 AM 68.0 °F - 59.0 °F 73% 29.91 in 10.0 mi NNW 8.1 mph - N/A   Clear
8:35 AM 68.0 °F - 59.0 °F 73% 29.91 in 10.0 mi NNW 9.2 mph - N/A   Clear
8:55 AM 69.8 °F - 59.0 °F 68% 29.91 in 10.0 mi NNW 6.9 mph - N/A   Clear
9:15 AM 71.6 °F - 59.0 °F 64% 29.91 in 10.0 mi NNW 9.2 mph - N/A   Clear
9:35 AM 71.6 °F - 59.0 °F 64% 29.91 in 10.0 mi NNW 10.4 mph - N/A   Clear
9:55 AM 73.4 °F - 57.2 °F 57% 29.91 in 10.0 mi NNW 10.4 mph - N/A   Clear
10:15 AM 73.4 °F - 59.0 °F 61% 29.91 in 10.0 mi North 10.4 mph - N/A   Clear
10:35 AM 75.2 °F - 59.0 °F 57% 29.91 in 10.0 mi NNW 9.2 mph - N/A   Clear
10:55 AM 73.4 °F - 57.2 °F 57% 29.91 in 10.0 mi NNW 5.8 mph - N/A   Clear
11:15 AM 75.2 °F - 57.2 °F 53% 29.91 in 10.0 mi NNW 9.2 mph - N/A   Clear
11:35 AM 75.2 °F - 59.0 °F 57% 29.91 in 10.0 mi NW 9.2 mph - N/A   Clear
11:55 AM 75.2 °F - 57.2 °F 53% 29.90 in 10.0 mi NNW 10.4 mph - N/A   Clear
12:15 PM 75.2 °F - 57.2 °F 53% 29.90 in 10.0 mi NW 8.1 mph 16.1 mph N/A   Clear
12:35 PM 77.0 °F - 57.2 °F 50% 29.89 in 10.0 mi NW 10.4 mph 16.1 mph N/A   Clear
12:55 PM 77.0 °F - 55.4 °F 47% 29.89 in 10.0 mi NNW 10.4 mph - N/A   Clear
1:15 PM 77.0 °F - 55.4 °F 47% 29.88 in 10.0 mi North 9.2 mph - N/A   Clear
1:35 PM 77.0 °F - 55.4 °F 47% 29.88 in 10.0 mi NNW 10.4 mph - N/A   Unknown
1:55 PM 77.0 °F - 55.4 °F 47% 29.88 in 10.0 mi NW 12.7 mph 18.4 mph N/A   Unknown
2:15 PM 77.0 °F - 53.6 °F 44% 29.87 in 10.0 mi NNW 15.0 mph 18.4 mph N/A   Clear
2:35 PM 77.0 °F - 55.4 °F 47% 29.87 in 10.0 mi North 9.2 mph - N/A   Clear
2:55 PM 77.0 °F - 53.6 °F 44% 29.87 in 10.0 mi NNW 9.2 mph 17.3 mph N/A   Clear
3:15 PM 78.8 °F - 53.6 °F 42% 29.87 in 10.0 mi NNW 11.5 mph - N/A   Clear
3:35 PM 78.8 °F - 53.6 °F 42% 29.86 in 10.0 mi NNW 13.8 mph 18.4 mph N/A   Clear
3:55 PM 78.8 °F - 55.4 °F 44% 29.87 in 10.0 mi NW 13.8 mph 19.6 mph N/A   Clear
4:15 PM 78.8 °F - 53.6 °F 42% 29.86 in 10.0 mi NW 11.5 mph - N/A   Clear
4:35 PM 80.6 °F 80.5 °F 55.4 °F 42% 29.86 in 10.0 mi NNW 10.4 mph - N/A   Clear
4:55 PM 78.8 °F - 55.4 °F 44% 29.86 in 10.0 mi WNW 15.0 mph 19.6 mph N/A   Unknown
5:15 PM 78.8 °F - 53.6 °F 42% 29.86 in 10.0 mi NNW 12.7 mph 18.4 mph N/A   Clear
5:35 PM 78.8 °F - 53.6 °F 42% 29.86 in 10.0 mi North 9.2 mph - N/A   Clear
5:55 PM 77.0 °F - 53.6 °F 44% 29.86 in 10.0 mi NNW 9.2 mph - N/A   Clear
6:15 PM 77.0 °F - 55.4 °F 47% 29.87 in 10.0 mi NW 9.2 mph - N/A   Clear
6:35 PM 77.0 °F - 53.6 °F 44% 29.87 in 10.0 mi NNW 8.1 mph - N/A   Clear
6:55 PM 75.2 °F - 53.6 °F 47% 29.87 in 10.0 mi NW 10.4 mph - N/A   Clear
7:15 PM 75.2 °F - 53.6 °F 47% 29.88 in 10.0 mi NNW 8.1 mph - N/A   Clear
7:35 PM 73.4 °F - 55.4 °F 53% 29.89 in 10.0 mi NNW 6.9 mph - N/A   Clear
7:55 PM 71.6 °F - 57.2 °F 60% 29.89 in 10.0 mi NNW 6.9 mph - N/A   Clear
8:15 PM 71.6 °F - 57.2 °F 60% 29.90 in 10.0 mi NNW 5.8 mph - N/A   Scattered Clouds
8:35 PM 71.6 °F - 57.2 °F 60% 29.90 in 10.0 mi NNW 5.8 mph - N/A   Overcast
8:55 PM 68.0 °F - 57.2 °F 68% 29.90 in 10.0 mi NNW 6.9 mph - N/A   Scattered Clouds
9:15 PM 68.0 °F - 57.2 °F 68% 29.91 in 10.0 mi NNW 5.8 mph - N/A   Clear
9:35 PM 68.0 °F - 59.0 °F 73% 29.92 in 10.0 mi North 4.6 mph - N/A   Clear
9:55 PM 66.2 °F - 59.0 °F 78% 29.93 in 10.0 mi North 4.6 mph - N/A   Clear
10:15 PM 68.0 °F - 59.0 °F 73% 29.93 in 10.0 mi North 4.6 mph - N/A   Clear
10:35 PM 68.0 °F - 59.0 °F 73% 29.92 in 10.0 mi NNE 3.5 mph - N/A   Clear
10:55 PM 66.2 °F - 59.0 °F 78% 29.92 in 10.0 mi North 4.6 mph - N/A   Clear
11:15 PM 64.4 °F - 60.8 °F 88% 29.92 in 10.0 mi NNW 3.5 mph - N/A   Clear
11:35 PM 64.4 °F - 60.8 °F 88% 29.92 in 10.0 mi NW 4.6 mph - N/A   Clear
11:55 PM 64.4 °F - 59.0 °F 83% 29.91 in 10.0 mi NW 3.5 mph - N/A   Clear